Time,TemperatureF,DewpointF,PressureIn,WindDirection,WindDirectionDegrees,WindSpeedMPH,WindSpeedGustMPH,Humidity,HourlyPrecipIn,Conditions,Clouds,dailyrainin,SoftwareType,DateUTC
2013-10-20 00:00:00,40.5,38.4,29.69,WSW,248,0.0,1.0,92,0.00,RA,,0.00,WeatherDisplay:10.37,2013-10-20 05:00:00,
2013-10-20 00:05:00,40.3,38.2,29.69,WSW,248,0.0,0.0,92,0.00,RA,,0.00,WeatherDisplay:10.37,2013-10-20 05:05:00,
2013-10-20 00:10:00,40.3,38.2,29.69,WSW,248,0.0,1.0,92,0.00,CLR,,0.00,WeatherDisplay:10.37,2013-10-20 05:10:00,
2013-10-20 00:15:00,40.2,38.3,29.69,WSW,251,0.0,0.0,93,0.00,CLR,,0.00,WeatherDisplay:10.37,2013-10-20 05:15:00,
2013-10-20 00:20:00,40.2,38.3,29.69,WSW,254,0.0,0.0,93,0.00,CLR,,0.00,WeatherDisplay:10.37,2013-10-20 05:20:00,
2013-10-20 00:25:00,40.2,38.3,29.69,WSW,255,0.0,0.0,93,0.00,CLR,,0.00,WeatherDisplay:10.37,2013-10-20 05:25:00,
2013-10-20 00:30:00,40.3,38.4,29.69,WSW,255,0.0,0.0,93,0.00,CLR,,0.00,WeatherDisplay:10.37,2013-10-20 05:30:00,
2013-10-20 00:35:00,40.2,38.4,29.69,WSW,255,0.0,0.0,93,0.00,CLR,,0.00,WeatherDisplay:10.37,2013-10-20 05:35:00,
2013-10-20 00:40:00,40.1,38.2,29.69,WSW,255,0.0,0.0,93,0.00,CLR,,0.00,WeatherDisplay:10.37,2013-10-20 05:40:00,
2013-10-20 00:45:00,39.8,38.0,29.69,WSW,255,0.0,1.0,93,0.00,CLR,,0.00,WeatherDisplay:10.37,2013-10-20 05:45:00,
2013-10-20 00:50:00,39.5,37.7,29.69,WSW,255,0.0,0.0,93,0.00,CLR,,0.00,WeatherDisplay:10.37,2013-10-20 05:50:00,
2013-10-20 00:55:00,39.2,37.4,29.69,WSW,255,0.0,0.0,93,0.00,CLR,,0.00,WeatherDisplay:10.37,2013-10-20 05:55:00,
2013-10-20 01:00:00,39.0,37.1,29.69,WSW,255,0.0,0.0,93,0.00,CLR,,0.00,WeatherDisplay:10.37,2013-10-20 06:00:00,
2013-10-20 01:05:00,38.8,36.9,29.69,WSW,255,0.0,0.0,93,0.00,CLR,,0.00,WeatherDisplay:10.37,2013-10-20 06:05:00,
2013-10-20 01:10:00,38.5,36.7,29.69,WSW,255,0.0,0.0,93,0.00,CLR,,0.00,WeatherDisplay:10.37,2013-10-20 06:10:00,
2013-10-20 01:15:00,38.2,36.3,29.69,WSW,255,0.0,0.0,93,0.00,CLR,,0.00,WeatherDisplay:10.37,2013-10-20 06:15:00,
2013-10-20 01:20:00,37.9,36.0,29.69,WSW,255,0.0,0.0,93,0.00,CLR,,0.00,WeatherDisplay:10.37,2013-10-20 06:20:00,
2013-10-20 01:25:00,37.6,36.0,29.69,WSW,255,0.0,0.0,94,0.00,CLR,,0.00,WeatherDisplay:10.37,2013-10-20 06:25:00,
2013-10-20 01:30:00,37.6,36.3,29.69,WSW,255,0.0,0.0,95,0.00,CLR,,0.00,WeatherDisplay:10.37,2013-10-20 06:30:00,
2013-10-20 01:35:00,37.8,36.5,29.70,WSW,255,0.0,0.0,95,0.00,CLR,,0.00,WeatherDisplay:10.37,2013-10-20 06:35:00,
2013-10-20 01:40:00,37.9,36.9,29.70,WSW,255,0.0,0.0,96,0.00,CLR,,0.00,WeatherDisplay:10.37,2013-10-20 06:40:00,
2013-10-20 01:45:00,37.9,36.9,29.70,WSW,255,0.0,2.0,96,0.00,CLR,,0.00,WeatherDisplay:10.37,2013-10-20 06:45:00,
2013-10-20 01:50:00,37.8,36.8,29.70,WSW,254,0.0,0.0,96,0.00,CLR,,0.00,WeatherDisplay:10.37,2013-10-20 06:50:00,
2013-10-20 01:55:00,37.6,36.6,29.70,WSW,254,0.0,2.0,96,0.00,CLR,,0.00,WeatherDisplay:10.37,2013-10-20 06:55:00,
2013-10-20 02:00:00,37.6,36.6,29.70,WSW,254,0.0,0.0,96,0.00,CLR,,0.00,WeatherDisplay:10.37,2013-10-20 07:00:00,
2013-10-20 02:05:00,37.5,36.5,29.70,WSW,254,0.0,0.0,96,0.00,CLR,,0.00,WeatherDisplay:10.37,2013-10-20 07:05:00,
2013-10-20 02:10:00,37.3,36.3,29.70,WSW,254,0.0,2.0,96,0.00,CLR,,0.00,WeatherDisplay:10.37,2013-10-20 07:10:00,
2013-10-20 02:15:00,37.2,36.2,29.70,WSW,254,0.0,2.0,96,0.00,CLR,,0.00,WeatherDisplay:10.37,2013-10-20 07:15:00,
2013-10-20 02:20:00,37.0,36.0,29.70,WSW,254,0.0,0.0,96,0.00,CLR,,0.00,WeatherDisplay:10.37,2013-10-20 07:20:00,
2013-10-20 02:25:00,37.3,36.5,29.70,WSW,254,0.0,0.0,97,0.00,CLR,,0.00,WeatherDisplay:10.37,2013-10-20 07:25:00,
2013-10-20 02:30:00,37.5,36.7,29.70,WSW,254,0.0,0.0,97,0.00,CLR,,0.00,WeatherDisplay:10.37,2013-10-20 07:30:00,
2013-10-20 02:35:00,37.6,36.8,29.70,WSW,254,0.0,0.0,97,0.00,CLR,,0.00,WeatherDisplay:10.37,2013-10-20 07:35:00,
2013-10-20 02:40:00,37.8,37.1,29.70,WSW,255,0.0,1.0,97,0.00,CLR,,0.00,WeatherDisplay:10.37,2013-10-20 07:40:00,
2013-10-20 02:45:00,38.1,37.3,29.70,WSW,257,0.0,2.0,97,0.00,CLR,,0.00,WeatherDisplay:10.37,2013-10-20 07:45:00,
2013-10-20 02:50:00,38.2,37.4,29.70,West,264,0.0,0.0,97,0.00,CLR,,0.00,WeatherDisplay:10.37,2013-10-20 07:50:00,
2013-10-20 02:55:00,38.3,37.3,29.70,West,264,0.0,0.0,96,0.00,CLR,,0.00,WeatherDisplay:10.37,2013-10-20 07:55:00,
2013-10-20 03:00:00,38.5,37.5,29.70,West,264,0.0,2.0,96,0.00,CLR,,0.00,WeatherDisplay:10.37,2013-10-20 08:00:00,
2013-10-20 03:05:00,38.5,37.5,29.70,West,263,0.0,0.0,96,0.00,CLR,,0.00,WeatherDisplay:10.37,2013-10-20 08:05:00,
2013-10-20 03:10:00,38.5,37.2,29.70,West,263,0.0,1.0,95,0.00,CLR,,0.00,WeatherDisplay:10.37,2013-10-20 08:10:00,
2013-10-20 03:15:00,38.6,37.3,29.70,West,264,0.0,1.0,95,0.00,CLR,,0.00,WeatherDisplay:10.37,2013-10-20 08:15:00,
2013-10-20 03:20:00,38.6,37.0,29.70,West,268,0.0,2.0,94,0.00,CLR,,0.00,WeatherDisplay:10.37,2013-10-20 08:20:00,
2013-10-20 03:25:00,38.8,37.2,29.70,West,274,0.0,0.0,94,0.00,CLR,,0.00,WeatherDisplay:10.37,2013-10-20 08:25:00,
2013-10-20 03:30:00,38.8,37.2,29.70,West,275,0.0,2.0,94,0.00,CLR,,0.00,WeatherDisplay:10.37,2013-10-20 08:30:00,
2013-10-20 03:35:00,38.9,37.3,29.70,WNW,284,0.0,0.0,94,0.00,CLR,,0.00,WeatherDisplay:10.37,2013-10-20 08:35:00,
2013-10-20 03:40:00,38.8,37.2,29.70,WNW,286,0.0,0.0,94,0.00,CLR,,0.00,WeatherDisplay:10.37,2013-10-20 08:40:00,
2013-10-20 03:45:00,38.6,37.0,29.70,WNW,286,0.0,0.0,94,0.00,CLR,,0.00,WeatherDisplay:10.37,2013-10-20 08:45:00,
2013-10-20 03:50:00,38.4,36.5,29.70,WNW,287,0.0,0.0,93,0.00,CLR,,0.00,WeatherDisplay:10.37,2013-10-20 08:50:00,
2013-10-20 03:55:00,38.2,36.6,29.70,WNW,287,0.0,0.0,94,0.00,CLR,,0.00,WeatherDisplay:10.37,2013-10-20 08:55:00,
2013-10-20 04:00:00,38.0,36.4,29.70,WNW,287,0.0,0.0,94,0.00,CLR,,0.00,WeatherDisplay:10.37,2013-10-20 09:00:00,
2013-10-20 04:05:00,37.9,36.3,29.70,WNW,286,0.0,0.0,94,0.00,CLR,,0.00,WeatherDisplay:10.37,2013-10-20 09:05:00,
2013-10-20 04:10:00,37.6,36.0,29.70,WNW,286,0.0,0.0,94,0.00,CLR,,0.00,WeatherDisplay:10.37,2013-10-20 09:10:00,
2013-10-20 04:15:00,37.5,35.9,29.70,WNW,286,0.0,0.0,94,0.00,CLR,,0.00,WeatherDisplay:10.37,2013-10-20 09:15:00,
2013-10-20 04:20:00,37.3,35.7,29.71,WNW,286,0.0,2.0,94,0.00,CLR,,0.00,WeatherDisplay:10.37,2013-10-20 09:20:00,
2013-10-20 04:25:00,37.2,35.6,29.71,WNW,286,0.0,1.0,94,0.00,CLR,,0.00,WeatherDisplay:10.37,2013-10-20 09:25:00,
2013-10-20 04:30:00,37.0,35.7,29.71,WNW,286,0.0,0.0,95,0.00,CLR,,0.00,WeatherDisplay:10.37,2013-10-20 09:30:00,
2013-10-20 04:35:00,36.9,35.6,29.71,WNW,286,0.0,0.0,95,0.00,CLR,,0.00,WeatherDisplay:10.37,2013-10-20 09:35:00,
2013-10-20 04:40:00,36.8,35.5,29.71,WNW,286,0.0,1.0,95,0.00,CLR,,0.00,WeatherDisplay:10.37,2013-10-20 09:40:00,
2013-10-20 04:45:00,36.6,35.3,29.71,WNW,287,0.0,0.0,95,0.00,CLR,,0.00,WeatherDisplay:10.37,2013-10-20 09:45:00,
2013-10-20 04:50:00,36.6,35.6,29.71,WNW,287,0.0,0.0,96,0.00,CLR,,0.00,WeatherDisplay:10.37,2013-10-20 09:50:00,
2013-10-20 04:55:00,36.5,35.5,29.71,WNW,286,0.0,0.0,96,0.00,CLR,,0.00,WeatherDisplay:10.37,2013-10-20 09:55:00,
2013-10-20 05:00:00,36.6,35.5,29.71,WNW,286,0.0,0.0,96,0.00,CLR,,0.00,WeatherDisplay:10.37,2013-10-20 10:00:00,
2013-10-20 05:05:00,36.7,35.7,29.71,WNW,286,0.0,0.0,96,0.00,CLR,,0.00,WeatherDisplay:10.37,2013-10-20 10:05:00,
2013-10-20 05:10:00,36.3,35.2,29.71,WNW,286,0.0,0.0,96,0.00,CLR,,0.00,WeatherDisplay:10.37,2013-10-20 10:10:00,
2013-10-20 05:15:00,36.0,35.0,29.71,WNW,287,1.0,2.0,96,0.00,CLR,,0.00,WeatherDisplay:10.37,2013-10-20 10:15:00,
2013-10-20 05:20:00,36.0,35.0,29.71,WNW,287,1.0,2.0,96,0.00,CLR,,0.00,WeatherDisplay:10.37,2013-10-20 10:20:00,
2013-10-20 05:25:00,36.0,35.0,29.71,NW,317,2.0,5.0,96,0.00,CLR,,0.00,WeatherDisplay:10.37,2013-10-20 10:25:00,
2013-10-20 05:30:00,36.0,35.2,29.71,NNW,340,0.0,5.0,97,0.00,CLR,,0.00,WeatherDisplay:10.37,2013-10-20 10:30:00,
2013-10-20 05:35:00,36.0,35.2,29.71,NNW,343,2.0,5.0,97,0.00,CLR,,0.00,WeatherDisplay:10.37,2013-10-20 10:35:00,
2013-10-20 05:40:00,35.9,35.1,29.71,NNW,345,1.0,5.0,97,0.00,CLR,,0.00,WeatherDisplay:10.37,2013-10-20 10:40:00,
2013-10-20 05:45:00,35.8,35.0,29.71,North,350,0.0,3.0,97,0.00,CLR,,0.00,WeatherDisplay:10.37,2013-10-20 10:45:00,
2013-10-20 05:50:00,35.6,35.1,29.71,North,350,2.0,5.0,98,0.00,CLR,,0.00,WeatherDisplay:10.37,2013-10-20 10:50:00,
2013-10-20 05:55:00,35.5,35.0,29.71,NNW,342,1.0,4.0,98,0.00,CLR,,0.00,WeatherDisplay:10.37,2013-10-20 10:55:00,
2013-10-20 06:00:00,35.5,35.0,29.71,NNW,329,1.0,4.0,98,0.00,CLR,,0.00,WeatherDisplay:10.37,2013-10-20 11:00:00,
2013-10-20 06:05:00,35.5,35.2,29.72,NNW,329,0.0,1.0,99,0.00,CLR,,0.00,WeatherDisplay:10.37,2013-10-20 11:05:00,
2013-10-20 06:10:00,35.5,35.2,29.72,NNW,330,0.0,1.0,99,0.00,CLR,,0.00,WeatherDisplay:10.37,2013-10-20 11:10:00,
2013-10-20 06:15:00,35.5,35.2,29.72,NNW,330,0.0,3.0,99,0.00,CLR,,0.00,WeatherDisplay:10.37,2013-10-20 11:15:00,
2013-10-20 06:20:00,35.5,35.2,29.73,NNW,330,0.0,0.0,99,0.00,CLR,,0.00,WeatherDisplay:10.37,2013-10-20 11:20:00,
2013-10-20 06:25:00,35.5,35.2,29.73,NNW,330,0.0,0.0,99,0.00,CLR,,0.00,WeatherDisplay:10.37,2013-10-20 11:25:00,
2013-10-20 06:30:00,35.5,35.5,29.73,NNW,330,0.0,0.0,100,0.00,,,0.00,WeatherDisplay:10.37,2013-10-20 11:30:00,
2013-10-20 06:35:00,35.5,35.5,29.73,NNW,330,0.0,0.0,100,0.00,,,0.00,WeatherDisplay:10.37,2013-10-20 11:35:00,
2013-10-20 06:40:00,35.5,35.5,29.73,NNW,330,0.0,0.0,100,0.00,,,0.00,WeatherDisplay:10.37,2013-10-20 11:40:00,
2013-10-20 06:45:00,35.5,35.5,29.73,NNW,330,0.0,0.0,100,0.00,,,0.00,WeatherDisplay:10.37,2013-10-20 11:45:00,
2013-10-20 06:50:00,35.5,35.5,29.73,NNW,330,0.0,0.0,100,0.00,,,0.00,WeatherDisplay:10.37,2013-10-20 11:50:00,
2013-10-20 06:55:00,35.5,35.5,29.73,NNW,330,0.0,0.0,100,0.00,,,0.00,WeatherDisplay:10.37,2013-10-20 11:55:00,
2013-10-20 07:00:00,35.8,35.8,29.73,NNW,330,0.0,0.0,100,0.00,,,0.00,WeatherDisplay:10.37,2013-10-20 12:00:00,
2013-10-20 07:05:00,35.9,35.9,29.73,NNW,330,0.0,0.0,100,0.00,,,0.00,WeatherDisplay:10.37,2013-10-20 12:05:00,
2013-10-20 07:10:00,35.9,35.9,29.73,NNW,330,0.0,1.0,100,0.00,,,0.00,WeatherDisplay:10.37,2013-10-20 12:10:00,
2013-10-20 07:15:00,35.6,35.6,29.73,NNW,330,0.0,0.0,100,0.00,,,0.00,WeatherDisplay:10.37,2013-10-20 12:15:00,
2013-10-20 07:20:00,35.3,35.3,29.74,NNW,330,0.0,1.0,100,0.00,,,0.00,WeatherDisplay:10.37,2013-10-20 12:20:00,
2013-10-20 07:25:00,35.0,35.0,29.74,NNW,330,0.0,0.0,100,0.00,,,0.00,WeatherDisplay:10.37,2013-10-20 12:25:00,
2013-10-20 07:30:00,35.0,35.0,29.74,NNW,330,0.0,0.0,100,0.00,,,0.00,WeatherDisplay:10.37,2013-10-20 12:30:00,
2013-10-20 07:35:00,34.9,34.9,29.74,NNW,330,0.0,0.0,100,0.00,,,0.00,WeatherDisplay:10.37,2013-10-20 12:35:00,
2013-10-20 07:40:00,34.9,34.9,29.74,NNW,330,0.0,0.0,100,0.00,,,0.00,WeatherDisplay:10.37,2013-10-20 12:40:00,
2013-10-20 07:45:00,34.7,34.7,29.74,NNW,330,0.0,0.0,100,0.00,,,0.00,WeatherDisplay:10.37,2013-10-20 12:45:00,
2013-10-20 07:50:00,34.6,34.6,29.75,NNW,330,0.0,0.0,100,0.00,,,0.00,WeatherDisplay:10.37,2013-10-20 12:50:00,
2013-10-20 07:55:00,34.6,34.6,29.75,NNW,330,0.0,0.0,100,0.00,,,0.00,WeatherDisplay:10.37,2013-10-20 12:55:00,
2013-10-20 08:00:00,34.7,34.7,29.75,NNW,330,0.0,0.0,100,0.00,,,0.00,WeatherDisplay:10.37,2013-10-20 13:00:00,
2013-10-20 08:05:00,35.0,35.0,29.75,NNW,330,0.0,0.0,100,0.00,,,0.00,WeatherDisplay:10.37,2013-10-20 13:05:00,
2013-10-20 08:10:00,34.6,34.6,29.75,NNW,330,0.0,0.0,100,0.00,,,0.00,WeatherDisplay:10.37,2013-10-20 13:10:00,
2013-10-20 08:15:00,34.3,34.3,29.75,NNW,330,0.0,0.0,100,0.00,,,0.00,WeatherDisplay:10.37,2013-10-20 13:15:00,
2013-10-20 08:20:00,34.4,34.4,29.76,NNW,330,0.0,0.0,100,0.00,,,0.00,WeatherDisplay:10.37,2013-10-20 13:20:00,
2013-10-20 08:25:00,34.6,34.6,29.76,NNW,330,0.0,0.0,100,0.00,,,0.00,WeatherDisplay:10.37,2013-10-20 13:25:00,
2013-10-20 08:30:00,34.9,34.9,29.76,NNW,330,0.0,0.0,100,0.00,,,0.00,WeatherDisplay:10.37,2013-10-20 13:30:00,
2013-10-20 08:35:00,34.9,34.9,29.75,NNW,330,0.0,0.0,100,0.00,,,0.00,WeatherDisplay:10.37,2013-10-20 13:35:00,
2013-10-20 08:40:00,34.7,34.7,29.75,NNW,330,0.0,0.0,100,0.00,,,0.00,WeatherDisplay:10.37,2013-10-20 13:40:00,
2013-10-20 08:45:00,34.7,34.7,29.75,NNW,330,0.0,0.0,100,0.00,,,0.00,WeatherDisplay:10.37,2013-10-20 13:45:00,
2013-10-20 08:50:00,35.2,35.2,29.75,NNW,330,0.0,0.0,100,0.00,,,0.00,WeatherDisplay:10.37,2013-10-20 13:50:00,
2013-10-20 08:55:00,35.2,35.2,29.75,NNW,330,0.0,0.0,100,0.00,,,0.00,WeatherDisplay:10.37,2013-10-20 13:55:00,
2013-10-20 09:00:00,34.9,34.9,29.75,NNW,329,0.0,0.0,100,0.00,,,0.00,WeatherDisplay:10.37,2013-10-20 14:00:00,
2013-10-20 09:05:00,34.9,34.9,29.75,NNW,330,0.0,0.0,100,0.00,,,0.00,WeatherDisplay:10.37,2013-10-20 14:05:00,
2013-10-20 09:10:00,34.9,34.9,29.75,NNW,330,0.0,0.0,100,0.00,,,0.00,WeatherDisplay:10.37,2013-10-20 14:10:00,
2013-10-20 09:15:00,35.0,35.0,29.75,NNW,330,0.0,0.0,100,0.00,,,0.00,WeatherDisplay:10.37,2013-10-20 14:15:00,
2013-10-20 09:20:00,35.2,35.2,29.75,NNW,330,0.0,0.0,100,0.00,,,0.00,WeatherDisplay:10.37,2013-10-20 14:20:00,
2013-10-20 09:25:00,35.7,35.7,29.75,NNW,329,0.0,0.0,100,0.00,,,0.00,WeatherDisplay:10.37,2013-10-20 14:25:00,
2013-10-20 09:30:00,36.1,36.1,29.75,NNW,330,0.0,0.0,100,0.00,,,0.00,WeatherDisplay:10.37,2013-10-20 14:30:00,
2013-10-20 09:35:00,36.5,36.5,29.75,NW,314,0.0,0.0,100,0.00,,,0.00,WeatherDisplay:10.37,2013-10-20 14:35:00,
2013-10-20 09:40:00,36.6,36.6,29.75,West,273,0.0,2.0,100,0.00,,,0.00,WeatherDisplay:10.37,2013-10-20 14:40:00,
2013-10-20 09:45:00,37.0,37.0,29.75,WSW,242,0.0,0.0,100,0.00,,,0.00,WeatherDisplay:10.37,2013-10-20 14:45:00,
2013-10-20 09:50:00,37.3,37.3,29.75,WSW,242,0.0,0.0,100,0.00,,,0.00,WeatherDisplay:10.37,2013-10-20 14:50:00,
2013-10-20 09:55:00,37.5,37.5,29.75,WSW,243,0.0,0.0,100,0.00,,,0.00,WeatherDisplay:10.37,2013-10-20 14:55:00,
2013-10-20 10:00:00,37.9,37.9,29.75,WSW,243,0.0,0.0,100,0.00,,,0.00,WeatherDisplay:10.37,2013-10-20 15:00:00,
2013-10-20 10:05:00,37.8,37.8,29.75,WSW,242,0.0,2.0,100,0.00,,,0.00,WeatherDisplay:10.37,2013-10-20 15:05:00,
2013-10-20 10:10:00,37.9,37.9,29.75,WSW,242,0.0,0.0,100,0.00,,,0.00,WeatherDisplay:10.37,2013-10-20 15:10:00,
2013-10-20 10:15:00,38.1,38.1,29.75,WSW,242,0.0,0.0,100,0.00,,,0.00,WeatherDisplay:10.37,2013-10-20 15:15:00,
2013-10-20 10:20:00,38.3,38.3,29.75,WSW,242,0.0,1.0,100,0.00,,,0.00,WeatherDisplay:10.37,2013-10-20 15:20:00,
2013-10-20 10:25:00,38.3,38.3,29.75,WSW,242,0.0,1.0,100,0.00,,,0.00,WeatherDisplay:10.37,2013-10-20 15:25:00,
2013-10-20 10:30:00,38.3,38.3,29.75,WSW,242,0.0,0.0,100,0.00,,,0.00,WeatherDisplay:10.37,2013-10-20 15:30:00,
2013-10-20 10:40:00,39.0,39.0,29.74,SW,230,1.0,2.0,100,0.00,,,0.00,WeatherDisplay:10.37,2013-10-20 15:40:00,
2013-10-20 10:45:00,39.3,39.3,29.74,SSW,204,0.0,0.0,100,0.00,,,0.00,WeatherDisplay:10.37,2013-10-20 15:45:00,
2013-10-20 10:50:00,39.6,39.6,29.74,SSW,194,0.0,0.0,100,0.00,,,0.00,WeatherDisplay:10.37,2013-10-20 15:50:00,
2013-10-20 10:55:00,39.9,39.9,29.74,SSW,193,0.0,4.0,100,0.00,,,0.00,WeatherDisplay:10.37,2013-10-20 15:55:00,
2013-10-20 11:00:00,40.2,40.2,29.74,SSE,148,0.0,5.0,100,0.00,,,0.00,WeatherDisplay:10.37,2013-10-20 16:00:00,
2013-10-20 11:05:00,40.2,40.2,29.74,SE,125,0.0,4.0,100,0.00,,,0.00,WeatherDisplay:10.37,2013-10-20 16:05:00,
2013-10-20 11:10:00,40.5,40.5,29.74,SE,135,0.0,4.0,100,0.00,,,0.00,WeatherDisplay:10.37,2013-10-20 16:10:00,
2013-10-20 11:15:00,40.8,40.5,29.74,SE,130,0.0,4.0,99,0.00,CLR,,0.00,WeatherDisplay:10.37,2013-10-20 16:15:00,
2013-10-20 11:20:00,41.1,40.3,29.74,SE,137,2.0,5.0,97,0.00,CLR,,0.00,WeatherDisplay:10.37,2013-10-20 16:20:00,
2013-10-20 11:25:00,41.2,40.2,29.74,SSE,160,0.0,3.0,96,0.00,CLR,,0.00,WeatherDisplay:10.37,2013-10-20 16:25:00,
2013-10-20 11:30:00,41.6,40.5,29.74,South,178,0.0,3.0,96,0.00,CLR,,0.00,WeatherDisplay:10.37,2013-10-20 16:30:00,
2013-10-20 11:35:00,41.8,40.5,29.73,SSW,194,1.0,3.0,95,0.00,CLR,,0.00,WeatherDisplay:10.37,2013-10-20 16:35:00,
2013-10-20 11:40:00,41.9,40.3,29.73,SSW,199,0.0,4.0,94,0.00,CLR,,0.00,WeatherDisplay:10.37,2013-10-20 16:40:00,
2013-10-20 11:45:00,42.1,40.2,29.73,SSW,206,0.0,0.0,93,0.00,CLR,,0.00,WeatherDisplay:10.37,2013-10-20 16:45:00,
2013-10-20 11:50:00,42.2,40.3,29.73,SSW,207,0.0,1.0,93,0.00,CLR,,0.00,WeatherDisplay:10.37,2013-10-20 16:50:00,
2013-10-20 11:55:00,42.3,40.4,29.73,South,187,1.0,4.0,93,0.00,CLR,,0.00,WeatherDisplay:10.37,2013-10-20 16:55:00,
2013-10-20 12:00:00,42.2,40.0,29.73,South,170,0.0,7.0,92,0.00,CLR,,0.00,WeatherDisplay:10.37,2013-10-20 17:00:00,
2013-10-20 12:05:00,42.1,39.9,29.73,SSE,167,0.0,4.0,92,0.00,CLR,,0.00,WeatherDisplay:10.37,2013-10-20 17:05:00,
2013-10-20 12:10:00,42.2,40.0,29.73,SSE,161,0.0,0.0,92,0.00,CLR,,0.00,WeatherDisplay:10.37,2013-10-20 17:10:00,
2013-10-20 12:15:00,42.3,40.4,29.73,SSE,161,0.0,4.0,93,0.00,CLR,,0.00,WeatherDisplay:10.37,2013-10-20 17:15:00,
2013-10-20 12:20:00,42.3,40.4,29.72,SSE,156,0.0,3.0,93,0.00,CLR,,0.00,WeatherDisplay:10.37,2013-10-20 17:20:00,
2013-10-20 12:25:00,42.3,40.4,29.72,SSE,154,0.0,2.0,93,0.00,CLR,,0.00,WeatherDisplay:10.37,2013-10-20 17:25:00,
2013-10-20 12:30:00,42.3,40.4,29.72,SE,140,1.0,7.0,93,0.00,CLR,,0.00,WeatherDisplay:10.37,2013-10-20 17:30:00,
2013-10-20 12:35:00,42.3,40.4,29.71,SE,129,0.0,3.0,93,0.00,CLR,,0.00,WeatherDisplay:10.37,2013-10-20 17:35:00,
2013-10-20 12:40:00,42.4,40.5,29.71,SE,134,0.0,4.0,93,0.01,RA,,0.01,WeatherDisplay:10.37,2013-10-20 17:40:00,
2013-10-20 12:45:00,42.5,40.6,29.71,SE,142,2.0,5.0,93,0.00,RA,,0.01,WeatherDisplay:10.37,2013-10-20 17:45:00,
2013-10-20 12:50:00,42.6,40.7,29.70,SSE,148,0.0,3.0,93,0.00,CLR,,0.01,WeatherDisplay:10.37,2013-10-20 17:50:00,
2013-10-20 12:55:00,43.1,41.5,29.70,SSE,148,3.0,10.0,94,0.00,CLR,,0.01,WeatherDisplay:10.37,2013-10-20 17:55:00,
2013-10-20 13:00:00,43.3,41.7,29.70,SSE,162,0.0,4.0,94,0.00,CLR,,0.01,WeatherDisplay:10.37,2013-10-20 18:00:00,
2013-10-20 13:05:00,43.8,42.2,29.70,SSE,159,1.0,4.0,94,0.00,CLR,,0.01,WeatherDisplay:10.37,2013-10-20 18:05:00,
2013-10-20 13:10:00,44.1,42.2,29.70,SE,140,0.0,10.0,93,0.00,CLR,,0.01,WeatherDisplay:10.37,2013-10-20 18:10:00,
2013-10-20 13:15:00,44.6,42.7,29.70,SE,143,1.0,4.0,93,0.00,CLR,,0.01,WeatherDisplay:10.37,2013-10-20 18:15:00,
2013-10-20 13:20:00,45.0,42.8,29.69,SSE,167,1.0,7.0,92,0.00,CLR,,0.01,WeatherDisplay:10.37,2013-10-20 18:20:00,
2013-10-20 13:25:00,45.4,43.2,29.69,South,180,2.0,4.0,92,0.00,CLR,,0.01,WeatherDisplay:10.37,2013-10-20 18:25:00,
2013-10-20 13:30:00,45.7,42.9,29.69,South,175,0.0,4.0,90,0.00,CLR,,0.01,WeatherDisplay:10.37,2013-10-20 18:30:00,
2013-10-20 13:35:00,45.8,43.0,29.68,South,178,0.0,3.0,90,0.00,CLR,,0.01,WeatherDisplay:10.37,2013-10-20 18:35:00,
2013-10-20 13:45:00,45.8,42.4,29.68,SSE,154,1.0,6.0,88,0.00,CLR,,0.01,WeatherDisplay:10.37,2013-10-20 18:45:00,
2013-10-20 13:50:00,45.7,42.1,29.67,SSE,154,0.0,4.0,87,0.00,CLR,,0.01,WeatherDisplay:10.37,2013-10-20 18:50:00,
2013-10-20 13:55:00,45.7,41.8,29.67,SE,144,0.0,5.0,86,0.00,CLR,,0.01,WeatherDisplay:10.37,2013-10-20 18:55:00,
2013-10-20 14:00:00,45.5,41.3,29.67,SE,139,0.0,2.0,85,0.00,CLR,,0.01,WeatherDisplay:10.37,2013-10-20 19:00:00,
2013-10-20 14:05:00,45.4,41.5,29.65,SE,132,1.0,7.0,86,0.00,CLR,,0.01,WeatherDisplay:10.37,2013-10-20 19:05:00,
2013-10-20 14:10:00,45.1,40.9,29.65,SSE,156,2.0,12.0,85,0.00,CLR,,0.01,WeatherDisplay:10.37,2013-10-20 19:10:00,
2013-10-20 14:15:00,45.1,41.2,29.65,SSE,157,1.0,12.0,86,0.00,CLR,,0.01,WeatherDisplay:10.37,2013-10-20 19:15:00,
2013-10-20 14:20:00,45.1,41.2,29.64,SE,146,1.0,6.0,86,0.00,CLR,,0.01,WeatherDisplay:10.37,2013-10-20 19:20:00,
2013-10-20 14:25:00,45.2,41.3,29.64,SE,146,2.0,5.0,86,0.00,CLR,,0.01,WeatherDisplay:10.37,2013-10-20 19:25:00,
2013-10-20 14:30:00,45.4,41.5,29.64,SSE,147,0.0,12.0,86,0.00,CLR,,0.01,WeatherDisplay:10.37,2013-10-20 19:30:00,
2013-10-20 14:35:00,45.2,41.3,29.62,SE,128,0.0,13.0,86,0.00,CLR,,0.01,WeatherDisplay:10.37,2013-10-20 19:35:00,
2013-10-20 14:40:00,45.4,41.7,29.62,ESE,117,3.0,14.0,87,0.00,CLR,,0.01,WeatherDisplay:10.37,2013-10-20 19:40:00,
2013-10-20 14:45:00,45.4,41.5,29.62,SE,144,2.0,7.0,86,0.00,CLR,,0.01,WeatherDisplay:10.37,2013-10-20 19:45:00,
2013-10-20 14:50:00,45.4,41.5,29.61,SE,145,5.0,10.0,86,0.00,CLR,,0.01,WeatherDisplay:10.37,2013-10-20 19:50:00,
2013-10-20 14:55:00,45.5,41.6,29.61,SE,138,1.0,9.0,86,0.00,CLR,,0.01,WeatherDisplay:10.37,2013-10-20 19:55:00,
2013-10-20 15:00:00,45.8,42.2,29.61,ESE,119,1.0,7.0,87,0.00,CLR,,0.01,WeatherDisplay:10.37,2013-10-20 20:00:00,
2013-10-20 15:05:00,46.1,42.1,29.61,SSE,165,2.0,8.0,86,0.00,CLR,,0.01,WeatherDisplay:10.37,2013-10-20 20:05:00,
2013-10-20 15:10:00,46.4,42.4,29.61,SSE,148,3.0,9.0,86,0.00,CLR,,0.01,WeatherDisplay:10.37,2013-10-20 20:10:00,
2013-10-20 15:15:00,46.7,42.7,29.61,South,169,0.0,5.0,86,0.00,CLR,,0.01,WeatherDisplay:10.37,2013-10-20 20:15:00,
2013-10-20 15:20:00,46.8,42.8,29.61,South,186,3.0,12.0,86,0.00,CLR,,0.01,WeatherDisplay:10.37,2013-10-20 20:20:00,
2013-10-20 15:25:00,47.0,42.7,29.61,South,174,2.0,8.0,85,0.00,CLR,,0.01,WeatherDisplay:10.37,2013-10-20 20:25:00,
2013-10-20 15:30:00,47.3,43.0,29.61,South,169,1.0,9.0,85,0.00,CLR,,0.01,WeatherDisplay:10.37,2013-10-20 20:30:00,
2013-10-20 15:40:00,47.7,43.1,29.60,SSE,155,1.0,5.0,84,0.00,CLR,,0.01,WeatherDisplay:10.37,2013-10-20 20:40:00,
2013-10-20 15:45:00,47.9,43.0,29.60,South,186,0.0,8.0,83,0.00,CLR,,0.01,WeatherDisplay:10.37,2013-10-20 20:45:00,
2013-10-20 15:50:00,48.0,42.4,29.60,SSW,212,2.0,12.0,81,0.00,CLR,,0.01,WeatherDisplay:10.37,2013-10-20 20:50:00,
2013-10-20 15:55:00,48.0,42.4,29.60,SSW,207,0.0,3.0,81,0.00,CLR,,0.01,WeatherDisplay:10.37,2013-10-20 20:55:00,
2013-10-20 16:00:00,48.0,42.1,29.60,SSW,196,2.0,5.0,80,0.00,CLR,,0.01,WeatherDisplay:10.37,2013-10-20 21:00:00,
2013-10-20 16:05:00,48.0,41.5,29.60,South,179,1.0,12.0,78,0.00,CLR,,0.01,WeatherDisplay:10.37,2013-10-20 21:05:00,
2013-10-20 16:10:00,48.0,40.8,29.60,South,189,1.0,5.0,76,0.00,CLR,,0.01,WeatherDisplay:10.37,2013-10-20 21:10:00,
2013-10-20 16:15:00,48.0,41.1,29.60,South,188,1.0,5.0,77,0.00,CLR,,0.01,WeatherDisplay:10.37,2013-10-20 21:15:00,
2013-10-20 16:20:00,47.9,40.7,29.61,SSW,206,2.0,9.0,76,0.00,CLR,,0.01,WeatherDisplay:10.37,2013-10-20 21:20:00,
2013-10-20 16:25:00,47.7,41.5,29.61,SSW,213,2.0,6.0,79,0.00,CLR,,0.01,WeatherDisplay:10.37,2013-10-20 21:25:00,
2013-10-20 16:30:00,47.5,41.3,29.61,SSW,208,0.0,8.0,79,0.00,CLR,,0.01,WeatherDisplay:10.37,2013-10-20 21:30:00,
2013-10-20 16:35:00,47.3,41.4,29.61,SSW,213,1.0,4.0,80,0.00,CLR,,0.01,WeatherDisplay:10.37,2013-10-20 21:35:00,
2013-10-20 16:40:00,47.1,41.9,29.61,SW,225,1.0,5.0,82,0.00,CLR,,0.01,WeatherDisplay:10.37,2013-10-20 21:40:00,
2013-10-20 16:45:00,47.0,42.1,29.61,SW,227,0.0,4.0,83,0.00,CLR,,0.01,WeatherDisplay:10.37,2013-10-20 21:45:00,
2013-10-20 16:50:00,46.8,42.5,29.62,SSW,213,2.0,5.0,85,0.00,CLR,,0.01,WeatherDisplay:10.37,2013-10-20 21:50:00,
2013-10-20 16:55:00,46.7,42.4,29.62,SSW,203,1.0,3.0,85,0.00,CLR,,0.01,WeatherDisplay:10.37,2013-10-20 21:55:00,
2013-10-20 17:00:00,46.5,42.8,29.62,SSW,200,0.0,4.0,87,0.01,RA,,0.02,WeatherDisplay:10.37,2013-10-20 22:00:00,
2013-10-20 17:05:00,46.4,43.0,29.61,SSW,203,1.0,3.0,88,0.00,RA,,0.02,WeatherDisplay:10.37,2013-10-20 22:05:00,
2013-10-20 17:10:00,46.2,43.1,29.61,SSW,210,2.0,5.0,89,0.00,,,0.02,WeatherDisplay:10.37,2013-10-20 22:10:00,
2013-10-20 17:15:00,46.2,43.4,29.61,SSW,210,0.0,1.0,90,0.01,RA,,0.03,WeatherDisplay:10.37,2013-10-20 22:15:00,
2013-10-20 17:20:00,46.1,43.3,29.61,SSW,210,0.0,4.0,90,0.00,RA,,0.03,WeatherDisplay:10.37,2013-10-20 22:20:00,
2013-10-20 17:25:00,46.0,43.5,29.61,SSW,210,0.0,3.0,91,0.00,CLR,,0.03,WeatherDisplay:10.37,2013-10-20 22:25:00,
2013-10-20 17:30:00,46.0,43.8,29.61,SSW,210,1.0,3.0,92,0.01,RA,,0.04,WeatherDisplay:10.37,2013-10-20 22:30:00,
2013-10-20 17:35:00,45.8,43.6,29.60,SW,233,1.0,8.0,92,0.00,RA,,0.04,WeatherDisplay:10.37,2013-10-20 22:35:00,
2013-10-20 17:40:00,45.8,43.9,29.60,WSW,252,0.0,3.0,93,0.00,,,0.04,WeatherDisplay:10.37,2013-10-20 22:40:00,
2013-10-20 17:45:00,45.8,44.2,29.60,WSW,258,0.0,3.0,94,0.01,RA,,0.05,WeatherDisplay:10.37,2013-10-20 22:45:00,
2013-10-20 17:50:00,45.8,44.2,29.60,WSW,257,1.0,4.0,94,0.01,RA,,0.06,WeatherDisplay:10.37,2013-10-20 22:50:00,
2013-10-20 17:55:00,45.8,44.4,29.60,WSW,257,0.0,3.0,95,0.00,RA,,0.06,WeatherDisplay:10.37,2013-10-20 22:55:00,
2013-10-20 18:00:00,45.7,44.4,29.60,WSW,237,2.0,5.0,95,0.00,,,0.06,WeatherDisplay:10.37,2013-10-20 23:00:00,
2013-10-20 18:05:00,45.7,44.4,29.60,WSW,248,1.0,4.0,95,0.00,CLR,,0.06,WeatherDisplay:10.37,2013-10-20 23:05:00,
2013-10-20 18:10:00,45.9,44.8,29.60,SW,224,1.0,7.0,96,0.01,RA,,0.07,WeatherDisplay:10.37,2013-10-20 23:10:00,
2013-10-20 18:15:00,46.0,44.9,29.60,SSW,193,2.0,5.0,96,0.00,RA,,0.07,WeatherDisplay:10.37,2013-10-20 23:15:00,
2013-10-20 18:20:00,46.1,45.0,29.60,SSW,209,1.0,5.0,96,0.00,CLR,,0.07,WeatherDisplay:10.37,2013-10-20 23:20:00,
2013-10-20 18:25:00,46.1,45.3,29.60,SW,221,2.0,5.0,97,0.00,CLR,,0.07,WeatherDisplay:10.37,2013-10-20 23:25:00,
2013-10-20 18:30:00,46.2,45.4,29.60,SW,220,3.0,5.0,97,0.00,CLR,,0.07,WeatherDisplay:10.37,2013-10-20 23:30:00,
2013-10-20 18:35:00,46.2,45.4,29.60,SW,222,1.0,4.0,97,0.00,CLR,,0.07,WeatherDisplay:10.37,2013-10-20 23:35:00,
2013-10-20 18:40:00,46.2,45.4,29.60,SW,234,2.0,4.0,97,0.00,CLR,,0.07,WeatherDisplay:10.37,2013-10-20 23:40:00,
2013-10-20 18:45:00,46.4,45.6,29.60,SW,224,2.0,5.0,97,0.01,RA,,0.08,WeatherDisplay:10.37,2013-10-20 23:45:00,
2013-10-20 18:50:00,46.5,45.9,29.60,SSW,207,2.0,6.0,98,0.00,RA,,0.08,WeatherDisplay:10.37,2013-10-20 23:50:00,
2013-10-20 18:55:00,46.5,46.0,29.60,SSW,202,3.0,5.0,98,0.00,CLR,,0.08,WeatherDisplay:10.37,2013-10-20 23:55:00,
2013-10-20 19:00:00,46.5,46.0,29.60,SSW,202,3.0,6.0,98,0.00,CLR,,0.08,WeatherDisplay:10.37,2013-10-21 00:00:00,
2013-10-20 19:05:00,46.5,46.0,29.60,SSW,202,2.0,5.0,98,0.00,CLR,,0.08,WeatherDisplay:10.37,2013-10-21 00:05:00,
2013-10-20 19:10:00,46.7,46.2,29.60,SSW,203,3.0,6.0,98,0.00,CLR,,0.08,WeatherDisplay:10.37,2013-10-21 00:10:00,
2013-10-20 19:15:00,46.8,46.3,29.60,SSW,203,2.0,5.0,98,0.00,CLR,,0.08,WeatherDisplay:10.37,2013-10-21 00:15:00,
2013-10-20 19:25:00,46.9,46.4,29.61,SSW,205,2.0,4.0,98,0.00,CLR,,0.08,WeatherDisplay:10.37,2013-10-21 00:25:00,
2013-10-20 19:30:00,46.8,46.2,29.61,SSW,199,1.0,4.0,98,0.00,CLR,,0.08,WeatherDisplay:10.37,2013-10-21 00:30:00,
2013-10-20 19:35:00,46.5,46.0,29.60,SSW,213,2.0,4.0,98,0.00,CLR,,0.08,WeatherDisplay:10.37,2013-10-21 00:35:00,
2013-10-20 19:40:00,46.4,45.6,29.60,SW,220,2.0,4.0,97,0.00,CLR,,0.08,WeatherDisplay:10.37,2013-10-21 00:40:00,
2013-10-20 19:45:00,46.2,45.4,29.60,SW,217,0.0,3.0,97,0.00,CLR,,0.08,WeatherDisplay:10.37,2013-10-21 00:45:00,
2013-10-20 19:50:00,46.1,45.3,29.61,SW,217,2.0,3.0,97,0.00,CLR,,0.08,WeatherDisplay:10.37,2013-10-21 00:50:00,
2013-10-20 19:55:00,46.1,45.6,29.61,SW,222,1.0,3.0,98,0.00,CLR,,0.08,WeatherDisplay:10.37,2013-10-21 00:55:00,
2013-10-20 20:00:00,46.1,45.6,29.61,SW,233,1.0,3.0,98,0.00,CLR,,0.08,WeatherDisplay:10.37,2013-10-21 01:00:00,
2013-10-20 20:05:00,46.0,45.5,29.61,WSW,250,1.0,3.0,98,0.00,CLR,,0.08,WeatherDisplay:10.37,2013-10-21 01:05:00,
2013-10-20 20:10:00,45.8,45.3,29.61,WSW,250,0.0,1.0,98,0.00,CLR,,0.08,WeatherDisplay:10.37,2013-10-21 01:10:00,
2013-10-20 20:15:00,45.7,45.2,29.61,WSW,250,1.0,3.0,98,0.00,CLR,,0.08,WeatherDisplay:10.37,2013-10-21 01:15:00,
2013-10-20 20:20:00,45.4,44.9,29.61,WSW,250,0.0,1.0,98,0.00,CLR,,0.08,WeatherDisplay:10.37,2013-10-21 01:20:00,
2013-10-20 20:25:00,45.2,44.7,29.61,WSW,250,0.0,4.0,98,0.00,CLR,,0.08,WeatherDisplay:10.37,2013-10-21 01:25:00,
2013-10-20 20:30:00,45.1,44.6,29.61,WSW,250,0.0,2.0,98,0.00,CLR,,0.08,WeatherDisplay:10.37,2013-10-21 01:30:00,
2013-10-20 20:35:00,44.9,44.4,29.61,WSW,250,0.0,3.0,98,0.00,CLR,,0.08,WeatherDisplay:10.37,2013-10-21 01:35:00,
2013-10-20 20:40:00,44.9,44.4,29.61,WSW,250,0.0,3.0,98,0.00,CLR,,0.08,WeatherDisplay:10.37,2013-10-21 01:40:00,
2013-10-20 20:45:00,44.9,44.6,29.61,WSW,250,2.0,3.0,99,0.00,CLR,,0.08,WeatherDisplay:10.37,2013-10-21 01:45:00,
2013-10-20 20:50:00,45.0,44.7,29.61,WSW,249,1.0,3.0,99,0.00,CLR,,0.08,WeatherDisplay:10.37,2013-10-21 01:50:00,
2013-10-20 20:55:00,45.2,44.9,29.61,WSW,249,0.0,1.0,99,0.00,CLR,,0.08,WeatherDisplay:10.37,2013-10-21 01:55:00,
2013-10-20 21:00:00,45.2,44.9,29.61,WSW,250,0.0,1.0,99,0.00,CLR,,0.08,WeatherDisplay:10.37,2013-10-21 02:00:00,
2013-10-20 21:05:00,45.2,45.2,29.60,WSW,250,0.0,2.0,100,0.00,,,0.08,WeatherDisplay:10.37,2013-10-21 02:05:00,
2013-10-20 21:10:00,45.4,45.4,29.60,WSW,250,1.0,4.0,100,0.00,,,0.08,WeatherDisplay:10.37,2013-10-21 02:10:00,
2013-10-20 21:15:00,45.5,45.5,29.60,WSW,250,0.0,2.0,100,0.00,,,0.08,WeatherDisplay:10.37,2013-10-21 02:15:00,
2013-10-20 21:20:00,45.7,45.7,29.60,WSW,250,0.0,2.0,100,0.00,,,0.08,WeatherDisplay:10.37,2013-10-21 02:20:00,
2013-10-20 21:25:00,45.8,45.8,29.60,WSW,250,0.0,1.0,100,0.00,,,0.08,WeatherDisplay:10.37,2013-10-21 02:25:00,
2013-10-20 21:30:00,46.0,46.0,29.60,WSW,249,0.0,3.0,100,0.00,,,0.08,WeatherDisplay:10.37,2013-10-21 02:30:00,
2013-10-20 21:35:00,46.1,46.1,29.60,WSW,250,1.0,3.0,100,0.00,,,0.08,WeatherDisplay:10.37,2013-10-21 02:35:00,
2013-10-20 21:40:00,46.1,46.1,29.60,WSW,250,2.0,4.0,100,0.00,,,0.08,WeatherDisplay:10.37,2013-10-21 02:40:00,
2013-10-20 21:50:00,46.2,46.2,29.61,WSW,249,2.0,5.0,100,0.00,,,0.08,WeatherDisplay:10.37,2013-10-21 02:50:00,
2013-10-20 21:55:00,46.2,46.2,29.61,WSW,248,1.0,3.0,100,0.00,,,0.08,WeatherDisplay:10.37,2013-10-21 02:55:00,
2013-10-20 22:00:00,46.3,46.3,29.61,WSW,247,2.0,4.0,100,0.00,,,0.08,WeatherDisplay:10.37,2013-10-21 03:00:00,
2013-10-20 22:05:00,46.4,46.4,29.60,WSW,242,2.0,5.0,100,0.00,,,0.08,WeatherDisplay:10.37,2013-10-21 03:05:00,
2013-10-20 22:10:00,46.4,46.4,29.60,WSW,237,2.0,5.0,100,0.00,,,0.08,WeatherDisplay:10.37,2013-10-21 03:10:00,
2013-10-20 22:15:00,46.5,46.5,29.60,SW,230,2.0,6.0,100,0.00,CLR,,0.08,WeatherDisplay:10.37,2013-10-21 03:15:00,
2013-10-20 22:20:00,46.5,46.5,29.61,SSW,211,3.0,10.0,100,0.00,CLR,,0.08,WeatherDisplay:10.37,2013-10-21 03:20:00,
2013-10-20 22:25:00,46.5,46.5,29.61,SSW,201,2.0,5.0,100,0.00,CLR,,0.08,WeatherDisplay:10.37,2013-10-21 03:25:00,
2013-10-20 22:30:00,46.4,46.4,29.61,SW,225,2.0,5.0,100,0.00,,,0.08,WeatherDisplay:10.37,2013-10-21 03:30:00,
2013-10-20 22:35:00,46.2,46.2,29.61,WSW,244,3.0,5.0,100,0.00,,,0.08,WeatherDisplay:10.37,2013-10-21 03:35:00,
2013-10-20 22:40:00,46.2,46.2,29.61,WSW,258,2.0,5.0,100,0.00,,,0.08,WeatherDisplay:10.37,2013-10-21 03:40:00,
2013-10-20 22:45:00,46.1,46.1,29.61,SW,235,2.0,5.0,100,0.00,,,0.08,WeatherDisplay:10.37,2013-10-21 03:45:00,
2013-10-20 22:50:00,46.1,45.8,29.62,SW,223,2.0,6.0,99,0.00,CLR,,0.08,WeatherDisplay:10.37,2013-10-21 03:50:00,
2013-10-20 22:55:00,46.0,45.7,29.62,SW,232,2.0,4.0,99,0.00,CLR,,0.08,WeatherDisplay:10.37,2013-10-21 03:55:00,
2013-10-20 23:00:00,46.0,45.5,29.62,SW,218,2.0,5.0,98,0.00,CLR,,0.08,WeatherDisplay:10.37,2013-10-21 04:00:00,
2013-10-20 23:05:00,45.9,45.4,29.62,SW,232,1.0,4.0,98,0.00,CLR,,0.08,WeatherDisplay:10.37,2013-10-21 04:05:00,
2013-10-20 23:10:00,45.8,45.3,29.62,SW,233,1.0,5.0,98,0.00,CLR,,0.08,WeatherDisplay:10.37,2013-10-21 04:10:00,
2013-10-20 23:15:00,45.8,45.0,29.62,SW,216,0.0,3.0,97,0.00,CLR,,0.08,WeatherDisplay:10.37,2013-10-21 04:15:00,
2013-10-20 23:20:00,45.8,45.0,29.62,SW,227,1.0,4.0,97,0.00,CLR,,0.08,WeatherDisplay:10.37,2013-10-21 04:20:00,
2013-10-20 23:25:00,45.8,45.0,29.62,WSW,241,1.0,4.0,97,0.00,CLR,,0.08,WeatherDisplay:10.37,2013-10-21 04:25:00,
2013-10-20 23:30:00,45.8,44.7,29.62,SW,230,0.0,4.0,96,0.00,CLR,,0.08,WeatherDisplay:10.37,2013-10-21 04:30:00,
2013-10-20 23:35:00,45.8,44.7,29.63,SW,214,0.0,3.0,96,0.00,CLR,,0.08,WeatherDisplay:10.37,2013-10-21 04:35:00,
2013-10-20 23:40:00,45.7,44.4,29.63,SSW,207,0.0,2.0,95,0.00,CLR,,0.08,WeatherDisplay:10.37,2013-10-21 04:40:00,
2013-10-20 23:45:00,45.6,44.3,29.63,SSW,203,1.0,2.0,95,0.00,CLR,,0.08,WeatherDisplay:10.37,2013-10-21 04:45:00,
2013-10-20 23:50:00,45.5,44.2,29.63,SSW,205,1.0,3.0,95,0.00,CLR,,0.08,WeatherDisplay:10.37,2013-10-21 04:50:00,
2013-10-20 23:55:00,45.4,44.1,29.63,SSW,205,1.0,3.0,95,0.00,CLR,,0.08,WeatherDisplay:10.37,2013-10-21 04:55:00,